Regional Weather Roundup
Issued by NWS

Home | Current Version | Previous Version | Text Only | Print | Product List | Glossary Off
Versions: 1 2 3 4 5 6 7 8 9 10 11 12 13 14 15 16 17 18 19 20 21 22 23 24 25 26 27

000
ASUS45 KPSR 050510
RWRAZ

ARIZONA HOURLY REGIONAL WEATHER ROUNDUP
NATIONAL WEATHER SERVICE PHOENIX AZ
1000 PM MST WED MAY 04 2016

NOTE: FAIR INDICATES FEW OR NO CLOUDS BELOW 12,000 FEET WITH NO
SIGNIFICANT WEATHER AND/OR OBSTRUCTIONS TO VISIBILITY.

AZZ001>003-036-050600-
NORTHWEST ARIZONA

CITY           SKY/WX    TMP DP  RH WIND       PRES   REMARKS
BULLHEAD CITY  CLOUDY    88  27  11 SE10      29.74R
KINGMAN        MOCLDY    72  25  17 S12       29.91R
$$

AZZ004>008-015-016-018-050600-
NORTH CENTRAL ARIZONA

CITY           SKY/WX    TMP DP  RH WIND       PRES   REMARKS
GRAND CANYON   CLEAR     46  30  53 NE5       30.15R
WILLIAMS       PTCLDY    50  25  37 SE8       30.22R
PRESCOTT       CLEAR     65  24  21 S7        30.05R
FLAGSTAFF      CLEAR     44  27  51 CALM      30.18S
PAYSON         CLEAR     68  25  19 CALM      30.08R
PAGE           PTCLDY    77  24  14 S10       29.96R
$$

AZZ009>014-017-050600-
NORTHEAST ARIZONA

CITY           SKY/WX    TMP DP  RH WIND       PRES   REMARKS
WINSLOW        CLEAR     63  33  32 S9        30.05R
SAINT JOHNS    CLEAR     60  28  29 S5        30.11S
WINDOW ROCK    MOCLDY    56  32  40 S6        30.22R
SHOW LOW       CLEAR     59  19  21 SE9       30.17S
$$

AZZ023-050600-
GREATER PHOENIX AREA

CITY           SKY/WX    TMP DP  RH WIND       PRES   REMARKS
PHOENIX        CLEAR     88  19   8 W10       29.79R
BUCKEYE        CLEAR     79  27  14 W9        29.82R
LUKE AFB       CLEAR     84  29  13 SW7       29.78R
DEER VALLEY    CLEAR     84  24  11 VRB5      29.82R
SCOTTSDALE     CLEAR     86  20   9 NW3       29.85R
MESA-GATEWAY   CLEAR     82  28  14 W5        29.84R
$$

AZZ027-028-050600-
SOUTHWEST MARICOPA COUNTY AND PINAL COUNTY

CITY           SKY/WX    TMP DP  RH WIND       PRES   REMARKS
CASA GRANDE    CLEAR     81  28  15 CALM      29.85R
GILA BEND      CLEAR     83  18   9 VRB2      29.79R
$$

AZZ503-504-507>509-050600-
SOUTHEAST ARIZONA

CITY           SKY/WX    TMP DP  RH WIND       PRES   REMARKS
TUCSON         CLEAR     82  33  17 NW7       29.95R
DAVIS-MONTHAN  CLEAR     79  36  21 NW7       29.94R HAZE
NOGALES        CLEAR     69  27  20 CALM      30.02R
SIERRA VISTA   CLEAR     75  24  15 NE8       30.07R
DOUGLAS        CLEAR     78  27  15 E17G25    30.03R
SAFFORD        CLEAR     76  26  15 S13       29.96R
$$

AZZ020-021-025-026-031-050600-
SOUTHWEST ARIZONA

CITY           SKY/WX    TMP DP  RH WIND       PRES   REMARKS
YUMA           MOCLDY    80  35  19 SE12      29.74S
$$

CAZ031-033-041-043-047-048-061-050600-
SOUTHERN CALIFORNIA

CITY           SKY/WX    TMP DP  RH WIND       PRES   REMARKS
DOWNTOWN L.A.  CLOUDY    61  52  72 VRB5      29.94S
L.A. AIRPORT   MOCLDY    60  51  72 W8        29.94R
SAN DIEGO      MOCLDY    62  51  67 SW6       29.97R
BURBANK        CLOUDY    58  50  75 S7        29.94R
ONTARIO        PTCLDY    58  50  75 W9        29.94R
RIVERSIDE      CLEAR     59  50  72 VRB5      29.94R
PALM SPRINGS   PTCLDY    76  46  34 W20G32    29.75R
EL CENTRO NAS  MOCLDY    78  45  30 W12       29.74R
IMPERIAL       MOCLDY    78  48  34 W5        29.73R
BLYTHE         MOCLDY    84  30  14 S12       29.75R
NEEDLES        CLOUDY    85  31  14 S3        29.74R
$$

NVZ020-UTZ003-050600-
SOUTHERN NEVADA-UTAH

CITY           SKY/WX    TMP DP  RH WIND       PRES   REMARKS
LAS VEGAS      MOCLDY    82  28  14 S5        29.75S
SALT LAKE CITY CLOUDY    64  41  42 SW7       29.95R
$$

NMZ009-TXZ055-050600-
NEW MEXICO-WEST TEXAS

CITY           SKY/WX    TMP DP  RH WIND       PRES   REMARKS
ALBUQUERQUE    CLEAR     65  23  20 E10       30.19R
EL PASO        CLEAR     74  20  13 E15       30.12R
$$


........................KEY........................
SKY/WX - SKY CONDITION/WEATHER
TMP    - TEMPERATURE IN FAHRENHEIT
DP     - DEW POINT IN FAHRENHEIT
RH     - RELATIVE HUMIDITY IN PERCENT
WIND   - DIRECTION AND SPEED IN MILES PER HOUR (MPH)
VRB    - VARIABLE WIND DIRECTION
PRES   - MEAN SEA LEVEL PRESSURE IN INCHES OF MERCURY
         F - FALLING PRESSURE   R - RISING PRESSURE
         S - STEADY PRESSURE
VSB    - VISIBILITY IN MILES
HX     - HEAT INDEX IN FAHRENHEIT
WCI    - WIND CHILL INDEX IN FAHRENHEIT
TC     - TEMPERATURE IN CELSIUS WHICH IS ALSO KNOWN AS
         TEMPERATURE IN CENTIGRADE
AFB    - AIR FORCE BASE
         LUKE AFB IS LUKE AIR FORCE BASE
         DAVIS-MONTHAN IS DAVIS-MONTHAN AIR FORCE BASE
NAS    - NAVAL AIR STATION
         EL CENTRO NAS IS EL CENTRO NAVAL AIR STATION
N/A    - NOT AVAILABLE





USA.gov is the U.S. government's official web portal to all federal, state and local government web resources and services.